Weather History for Karlovy Vary, Czech Republic

Change the Weather History Date:

Wednesday, October 26, 2011

  Actual Average (EDQM) Record (EDQM)
Temperature  
Mean Temperature 46 °F -  
Max Temperature 48 °F 48 °F 68 °F (2006)
Min Temperature 44 °F 38 °F 30 °F (2010)
Degree Days  
Heating Degree Days 19    
Moisture  
Dew Point 46 °F    
Average Humidity 97    
Maximum Humidity 100    
Minimum Humidity 93    
Precipitation  
Precipitation 0.00 in - - ()
Sea Level Pressure  
Sea Level Pressure 29.99 in    
Wind  
Wind Speed 2 mph ()    
Max Wind Speed 7 mph    
Max Gust Speed -    
Visibility 1.8 miles    
Events Fog , Rain    
Averages and records for this station are not official NWS values.
T = Trace of Precipitation, MM = Missing Value Source: Averaged Metar Reports

Daily Weather History Graph

Daily Weather History Graph

Search for Another Location

Airport:

Trip Planner

Search our weather history database for the weather conditions in past years. The results will help you decide how hot, cold, wet, or windy it might be!

Date:

Astronomy

Oct. 26, 2011 Rise Set
Actual Time 7:47 AM CEST 5:56 PM CEST
Civil Twilight 7:14 AM CEST 6:29 PM CEST
Nautical Twilight 6:36 AM CEST 7:07 PM CEST
Astronomical Twilight 5:58 AM CEST 7:45 PM CEST
Moon 7:16 AM CEST (10/26) 5:20 PM CEST (10/26)
Length of Visible Light 11h 15m
Length of Day
10h 08m
Waning Crescent, 0% of the Moon is Illuminated
Oct 26
Waning Crescent
Oct 26
New
Nov 2
First Quarter
Nov 10
Full
Nov 18
Last Quarter

Hourly Weather History & Observations

Time (CEST) Temp. Windchill Dew Point Humidity Pressure Visibility Wind Dir Wind Speed Gust Speed Precip Events Conditions
12:00 AM 44.6 °F 42.2 °F 42.8 °F 93% 29.80 in 3.1 mi ENE 4.6 mph - N/A   Overcast
1:00 AM 44.6 °F 40.7 °F 42.8 °F 93% 29.80 in 1.6 mi East 6.9 mph - N/A   Overcast
2:00 AM 44.6 °F 43.1 °F 42.8 °F 93% 29.83 in 1.9 mi ENE 3.5 mph - N/A Rain Light Rain
3:00 AM 44.6 °F 41.4 °F 44.6 °F 100% 29.83 in 1.6 mi ENE 5.8 mph - N/A Rain Light Rain
4:00 AM 44.6 °F 41.4 °F 44.6 °F 100% 29.83 in 2.5 mi ESE 5.8 mph - N/A   Overcast
5:00 AM 44.6 °F 40.7 °F 44.6 °F 100% 29.86 in 0.6 mi Variable 6.9 mph - N/A Fog Fog
6:00 AM 44.6 °F - 44.6 °F 100% 29.86 in 0.4 mi Variable 2.3 mph - N/A Fog Fog
7:00 AM 44.6 °F - 44.6 °F 100% 29.89 in 0.5 mi Variable 2.3 mph - N/A Fog Fog
8:00 AM 44.6 °F - 44.6 °F 100% 29.89 in 0.2 mi Calm Calm - N/A Fog Fog
8:30 AM 44.6 °F - 44.6 °F 100% 29.92 in 0.1 mi Variable 1.2 mph - N/A Fog Fog
9:00 AM 44.6 °F - 44.6 °F 100% 29.92 in 0.1 mi ESE 1.2 mph - N/A Fog Fog
9:30 AM 46.4 °F - 44.6 °F 93% 29.95 in 0.2 mi Calm Calm - N/A Fog Fog
10:00 AM 46.4 °F - 44.6 °F 93% 29.95 in 0.4 mi Calm Calm - N/A Fog , Rain Light Rain
10:17 AM 46.4 °F - 46.4 °F 100% 29.98 in 1.0 mi Calm Calm - N/A Rain Light Rain
10:30 AM 46.4 °F - 46.4 °F 100% 29.98 in 1.2 mi Variable 1.2 mph - N/A Rain Light Rain
11:00 AM 46.4 °F - 46.4 °F 100% 29.98 in 1.4 mi Variable 2.3 mph - N/A Rain Light Rain
11:30 AM 46.4 °F - 46.4 °F 100% 29.98 in 3.1 mi Calm Calm - N/A Rain Light Rain
12:00 PM 46.4 °F - 46.4 °F 100% 29.98 in 3.7 mi Calm Calm - N/A   Overcast
12:30 PM 48.2 °F - 46.4 °F 93% 30.01 in 3.7 mi Calm Calm - N/A   Overcast
1:00 PM 48.2 °F - 46.4 °F 93% 30.01 in 3.1 mi Variable 2.3 mph - N/A Rain Light Rain
1:30 PM 48.2 °F - 46.4 °F 93% 30.01 in 3.7 mi Calm Calm - N/A   Overcast
2:00 PM 48.2 °F - 46.4 °F 93% 30.01 in 3.7 mi Variable 2.3 mph - N/A   Overcast
2:06 PM 48.2 °F - 46.4 °F 93% 30.01 in - NW 3.5 mph - N/A   Overcast
2:30 PM 48.2 °F - 46.4 °F 93% 30.01 in 2.2 mi NW 2.3 mph - N/A Rain Light Rain
3:00 PM 48.2 °F - 46.4 °F 93% 30.01 in 3.1 mi Variable 1.2 mph - N/A Rain Light Rain
3:30 PM 48.2 °F - 46.4 °F 93% 30.01 in 4.3 mi Calm Calm - N/A Rain Light Rain
4:00 PM 48.2 °F - 46.4 °F 93% 30.04 in 4.3 mi Calm Calm - N/A Rain Light Rain
4:30 PM 48.2 °F - 46.4 °F 93% 30.04 in - Calm Calm - N/A Rain Light Rain
4:45 PM 48.2 °F - 46.4 °F 93% 30.04 in 1.7 mi Calm Calm - N/A Rain Light Rain
5:00 PM 48.2 °F - 46.4 °F 93% 30.04 in - Calm Calm - N/A Rain Light Rain
5:30 PM 46.4 °F - 46.4 °F 100% 30.04 in 3.1 mi Calm Calm - N/A   Scattered Clouds
6:00 PM 46.4 °F - 46.4 °F 100% 30.04 in 3.1 mi Calm Calm - N/A   Partly Cloudy
6:30 PM 46.4 °F - 46.4 °F 100% 30.04 in 2.2 mi Calm Calm - N/A   Mostly Cloudy
7:00 PM 46.4 °F - 46.4 °F 100% 30.04 in 1.6 mi Calm Calm - N/A   Mostly Cloudy
7:30 PM 46.4 °F - 46.4 °F 100% 30.06 in 0.7 mi Calm Calm - N/A   Partly Cloudy
8:00 PM 46.4 °F - 44.6 °F 93% 30.06 in 0.6 mi Variable 2.3 mph - N/A Fog Scattered Clouds
8:17 PM 46.4 °F - 44.6 °F 93% 30.06 in 0.3 mi ESE 2.3 mph - N/A Fog Fog
8:30 PM 46.4 °F - 44.6 °F 93% 30.06 in 0.3 mi East 1.2 mph - N/A Fog Fog
9:00 PM 44.6 °F - 44.6 °F 100% 30.06 in 1.6 mi East 2.3 mph - N/A   Scattered Clouds
10:00 PM 46.4 °F - 46.4 °F 100% 30.06 in 1.9 mi Variable 2.3 mph - N/A   Mostly Cloudy
10:19 PM 46.4 °F - 46.4 °F 100% 30.09 in 1.5 mi Variable 2.3 mph - N/A   Overcast
10:34 PM 46.4 °F - 46.4 °F 100% 30.09 in 0.7 mi Variable 1.2 mph - N/A Fog Overcast
11:00 PM 46.4 °F 45.2 °F 46.4 °F 100% 30.09 in 1.4 mi ENE 3.5 mph - N/A   Overcast
11:23 PM 46.4 °F - 46.4 °F 100% 30.09 in - East 2.3 mph - N/A   Overcast